This is the latest recevied weather packets stored in our database for station/object KI5NYZ-13. If no packets are shown the sender has not sent any weather packets the latest 10 day(s).
| Time | Temp. | Humidity | Pressure | Rain* | Wind** | Luminosity | Snow |
|---|---|---|---|---|---|---|---|
| 1788614279 | 21.67° C | 77% | 1011.8 hPa | 0 mm | - | - | - |
| 1788612478 | 21.11° C | 78% | 1011.6 hPa | 0 mm | - | - | - |
| 1788610677 | 21.67° C | 76% | 1011.1 hPa | 0 mm | - | - | - |
| 1788607254 | 21.67° C | 75% | 1011.3 hPa | 0 mm | - | - | - |
| 1788605453 | 21.67° C | 74% | 1011.4 hPa | 0 mm | - | - | - |
| 1788603652 | 22.22° C | 74% | 1011.3 hPa | 0 mm | - | - | - |
| 1788601851 | 22.78° C | 71% | 1010.9 hPa | 0 mm | - | - | - |
| 1788600050 | 23.33° C | 69% | 1010.7 hPa | 0 mm | - | - | - |
| 1788598249 | 23.33° C | 70% | 1010.6 hPa | 0 mm | - | - | - |
| 1788596448 | 23.33° C | 70% | 1010.4 hPa | 0 mm | - | - | - |
| 1788594647 | 23.33° C | 68% | 1010.4 hPa | 0 mm | - | - | - |
| 1788592846 | 23.89° C | 67% | 1010.3 hPa | 0 mm | - | - | - |
| 1788591056 | 24.44° C | 65% | 1010.2 hPa | 0 mm | - | - | - |
| 1788589247 | 25° C | 63% | 1010.1 hPa | 0 mm | - | - | - |
| 1788587455 | 25.56° C | 61% | 1009.6 hPa | 0 mm | - | - | - |
| 1788585642 | 26.11° C | 58% | 1009.3 hPa | 0.25 mm | - | - | - |
| 1788583841 | 26.67° C | 57% | 1009.4 hPa | 1.02 mm | - | - | - |
| 1788582040 | 26.67° C | 57% | 1009.3 hPa | 1.78 mm | - | - | - |
| 1788580239 | 27.22° C | 55% | 1009 hPa | 2.79 mm | - | - | - |
| 1788578438 | 27.78° C | 53% | 1008.4 hPa | 3.3 mm | - | - | - |
| 1788576637 | 28.33° C | 51% | 1007.6 hPa | 1.78 mm | - | - | - |
| 1788574836 | 29.44° C | 49% | 1007 hPa | 0.51 mm | - | - | - |
| 1788573035 | 30.56° C | 44% | 1005.8 hPa | 0 mm | - | - | - |
| 1788571234 | 35° C | 28% | 1003.7 hPa | 0 mm | - | - | - |
| 1788569434 | 36.67° C | 25% | 1002.8 hPa | 0 mm | - | - | - |
* Rain latest hour (hover to see other rain measurements)
** Current wind speed in m/s (hover to see current wind gust speed)